Date String (YYYY-MM-DD hh:mm:ss) UTC,Instrument flags,Ambient pressure (hPa),Sample flow (lpm),Bypass flow (lpm),Sample temperature (°C),Ambient temperature (°C),ASC tube jacket temperature (°C),LED temperature (°C),Box temperature (°C),Sample RH (%),Span deviation,Mass concentration (μg/m³),Mass concentration (μg/m³),Mass concentration (μg/m³)
DateTimeUTC,F1_M11,P_M11,Q1_M11,Q2_M11,T1_M11,T2_M11,T3_M11,T4_M11,T5_M11,U1_M11,ZSPAN_M11,X0_M11,X2_M11,X1_M11
2022-03-24 11:00:00,,0823.8,5.00,0.00,22.2,21.5,00.0,31.1,24.1,09.4,0000.0,0004.68,0001.95,0001.13
2022-03-24 11:01:00,,0823.8,4.99,0.00,22.2,21.5,00.0,31.1,24.1,09.4,0000.0,0005.21,0001.98,0001.11
2022-03-24 11:02:00,,0823.8,5.00,0.00,22.2,21.5,00.0,31.1,24.0,09.7,0000.0,0005.88,0001.99,0001.11
2022-03-24 11:03:00,,0823.8,5.00,0.00,22.2,21.5,00.0,31.1,24.0,09.7,0000.0,0005.87,0002.00,0001.13
2022-03-24 11:04:00,,0823.8,5.00,0.00,22.2,21.5,00.0,31.2,24.0,09.4,0000.0,0005.80,0001.96,0001.12
2022-03-24 11:05:00,,0823.8,5.00,0.00,22.2,21.5,00.0,31.2,24.0,09.5,0000.0,0005.70,0001.93,0001.12
2022-03-24 11:06:00,,0823.7,5.00,0.00,22.2,21.5,00.0,31.2,24.0,09.6,0000.0,0005.59,0001.89,0001.12
2022-03-24 11:07:00,,0823.7,5.00,0.00,22.3,21.5,00.0,31.2,24.1,09.5,0000.0,0005.40,0001.84,0001.11
2022-03-24 11:08:00,,0823.7,5.00,0.00,22.3,21.5,00.0,31.2,24.0,09.6,0000.0,0004.43,0001.84,0001.11
2022-03-24 11:09:00,,0823.7,5.00,0.00,22.3,21.5,00.0,31.2,24.0,09.6,0000.0,0004.38,0001.83,0001.10
2022-03-24 11:10:00,,0823.6,5.00,0.00,22.3,21.5,00.0,31.2,24.0,09.6,0000.0,0004.53,0001.86,0001.10
2022-03-24 11:11:00,,0823.6,5.00,0.00,22.2,21.4,00.0,31.2,24.0,09.5,0000.0,0004.65,0001.91,0001.13
2022-03-24 11:12:00,,0823.7,5.02,0.00,22.2,21.4,00.0,31.2,24.1,09.4,0000.0,0005.25,0001.92,0001.14
2022-03-24 11:13:00,,0823.7,5.00,0.00,22.3,21.5,00.0,31.2,24.1,09.5,0000.0,0004.90,0001.89,0001.14
2022-03-24 11:14:00,,0823.7,5.00,0.00,22.3,21.5,00.0,31.2,24.1,09.6,0000.0,0004.86,0001.89,0001.13
2022-03-24 11:15:00,,0823.7,5.00,0.00,22.3,21.5,00.0,31.2,24.1,09.6,0000.0,0005.36,0001.96,0001.14
2022-03-24 11:16:00,,0823.6,5.00,0.00,22.3,21.5,00.0,31.2,24.1,09.7,0000.0,0005.62,0001.99,0001.14
2022-03-24 11:17:00,,0823.7,5.00,0.00,22.3,21.4,00.0,31.2,24.0,09.8,0000.0,0005.67,0001.99,0001.14
2022-03-24 11:18:00,,0823.7,4.99,0.00,22.3,21.4,00.0,31.2,24.0,09.7,0000.0,0006.66,0001.99,0001.15
2022-03-24 11:19:00,,0823.6,5.00,0.00,22.3,21.4,00.0,31.2,24.0,09.6,0000.0,0007.17,0001.98,0001.15
2022-03-24 11:20:00,,0823.5,5.01,0.00,22.3,21.4,00.0,31.2,24.1,09.6,0000.0,0007.39,0001.97,0001.16
2022-03-24 11:21:00,,0823.5,5.00,0.00,22.3,21.4,00.0,31.2,24.1,09.5,0000.0,0007.42,0001.96,0001.15
2022-03-24 11:22:00,,0823.6,5.00,0.00,22.3,21.4,00.0,31.2,24.1,09.6,0000.0,0007.45,0001.93,0001.12
2022-03-24 11:23:00,,0823.6,5.01,0.00,22.2,21.4,00.0,31.2,24.0,09.8,0000.0,0006.84,0001.92,0001.13
2022-03-24 11:24:00,,0823.6,4.99,0.00,22.2,21.3,00.0,31.2,24.0,09.8,0000.0,0006.50,0001.92,0001.13
2022-03-24 11:25:00,,0823.6,5.00,0.00,22.2,21.3,00.0,31.2,24.0,09.7,0000.0,0006.52,0001.91,0001.13
2022-03-24 11:26:00,,0823.6,4.99,0.00,22.2,21.3,00.0,31.2,24.0,09.6,0000.0,0006.07,0001.82,0001.13
2022-03-24 11:27:00,,0823.6,5.00,0.00,22.2,21.3,00.0,31.2,24.0,09.7,0000.0,0006.30,0001.79,0001.12
2022-03-24 11:28:00,,0823.6,5.00,0.00,22.2,21.3,00.0,31.2,24.0,09.7,0000.0,0006.92,0001.83,0001.11
2022-03-24 11:29:00,,0823.6,5.00,0.00,22.2,21.3,00.0,31.2,24.0,09.6,0000.0,0006.12,0001.83,0001.11
2022-03-24 11:30:00,,0823.6,5.00,0.00,22.2,21.3,00.0,31.2,24.0,09.6,0000.0,0005.57,0001.85,0001.11
2022-03-24 11:31:00,,0823.6,5.01,0.00,22.2,21.3,00.0,31.2,24.0,09.5,0000.0,0005.15,0001.85,0001.11
2022-03-24 11:32:00,,0823.6,5.01,0.00,22.2,21.3,00.0,31.2,24.0,09.5,0000.0,0004.98,0001.80,0001.09
2022-03-24 11:33:00,,0823.6,5.01,0.00,22.2,21.4,00.0,31.2,24.0,09.6,0000.0,0004.83,0001.78,0001.10
2022-03-24 11:34:00,,0823.5,5.00,0.00,22.2,21.7,00.0,31.2,24.1,09.5,0000.0,0004.68,0001.77,0001.09
2022-03-24 11:35:00,,0823.5,5.00,0.00,22.4,22.5,00.0,31.2,24.3,09.4,0000.0,0004.50,0001.75,0001.07
2022-03-24 11:36:00,,0823.6,5.01,0.00,22.5,23.4,00.0,31.3,24.6,09.4,0000.0,0004.54,0001.76,0001.06
2022-03-24 11:37:00,,0823.6,4.98,0.00,22.7,23.7,00.0,31.3,24.8,09.4,0000.0,0004.52,0001.75,0001.05
2022-03-24 11:38:00,,0823.6,5.00,0.00,22.7,23.3,00.0,31.4,24.7,09.3,0000.0,0004.30,0001.74,0001.04
2022-03-24 11:39:00,,0823.5,4.99,0.00,22.7,23.1,00.0,31.4,24.7,09.3,0000.0,0003.30,0001.75,0001.05
2022-03-24 11:40:00,,0823.6,5.01,0.00,22.7,22.8,00.0,31.4,24.6,09.2,0000.0,0003.30,0001.75,0001.04
2022-03-24 11:41:00,,0823.7,5.00,0.00,22.7,22.6,00.0,31.4,24.6,09.3,0000.0,0003.24,0001.71,0001.02
2022-03-24 11:42:00,,0823.5,5.01,0.00,22.7,22.4,00.0,31.5,24.5,09.4,0000.0,0003.21,0001.68,0001.01
2022-03-24 11:43:00,,0823.5,5.00,0.00,22.7,22.2,00.0,31.5,24.5,09.3,0000.0,0003.26,0001.68,0001.00
2022-03-24 11:44:00,,0823.5,4.99,0.00,22.7,22.1,00.0,31.5,24.5,09.3,0000.0,0003.08,0001.61,0000.98
2022-03-24 11:45:00,,0823.6,5.00,0.00,22.7,22.1,00.0,31.5,24.5,09.3,0000.0,0002.92,0001.60,0000.98
2022-03-24 11:46:00,,0823.6,4.99,0.00,22.7,22.0,00.0,31.5,24.5,09.4,0000.0,0002.76,0001.56,0000.98
2022-03-24 11:47:00,,0823.5,4.99,0.00,22.7,22.0,00.0,31.5,24.5,09.4,0000.0,0002.70,0001.54,0000.98
2022-03-24 11:48:00,,0823.5,5.00,0.00,22.7,22.0,00.0,31.5,24.5,09.4,0000.0,0002.71,0001.56,0000.98
2022-03-24 11:49:00,,0823.5,5.00,0.00,22.6,21.9,00.0,31.5,24.5,09.4,0000.0,0002.69,0001.55,0000.97
2022-03-24 11:50:00,,0823.5,4.99,0.00,22.6,21.9,00.0,31.5,24.4,09.5,0000.0,0002.54,0001.47,0000.96
2022-03-24 11:51:00,,0823.5,5.00,0.00,22.6,21.8,00.0,31.5,24.5,09.6,0000.0,0002.37,0001.39,0000.95
2022-03-24 11:52:00,,0823.5,5.00,0.00,22.6,21.8,00.0,31.5,24.4,09.7,0000.0,0002.38,0001.40,0000.95
2022-03-24 11:53:00,,0823.5,5.01,0.00,22.6,21.8,00.0,31.5,24.4,09.7,0000.0,0002.33,0001.39,0000.95
2022-03-24 11:54:00,,0823.5,5.01,0.00,22.6,21.8,00.0,31.5,24.4,09.8,0000.0,0002.24,0001.36,0000.95
2022-03-24 11:55:00,,0823.4,5.01,0.00,22.6,21.8,00.0,31.5,24.4,09.8,0000.0,0002.10,0001.32,0000.95
2022-03-24 11:56:00,,0823.4,4.99,0.00,22.6,21.8,00.0,31.5,24.4,10.1,0000.0,0002.08,0001.30,0000.95
2022-03-24 11:57:00,,0823.4,4.99,0.00,22.6,21.8,00.0,31.5,24.4,09.9,0000.0,0002.59,0001.28,0000.94
2022-03-24 11:58:00,,0823.4,5.00,0.00,22.6,21.8,00.0,31.5,24.4,10.0,0000.0,0003.02,0001.28,0000.93
2022-03-24 11:59:00,,0823.4,5.00,0.00,22.6,21.8,00.0,31.5,24.4,10.1,0000.0,0002.96,0001.26,0000.93
